Weather History for Las Vegas, NM

Change the Weather History Date:

Thursday, March 29, 2012

  Actual Average Record
Temperature  
Mean Temperature 55 °F -  
Max Temperature 73 °F 53 °F 74 °F (1986)
Min Temperature 39 °F 26 °F 10 °F (1987)
Degree Days  
Heating Degree Days 10    
Growing Degree Days 5 (Base 50)    
Moisture  
Dew Point 6 °F    
Average Humidity 15    
Maximum Humidity 27    
Minimum Humidity 7    
Precipitation  
Precipitation 0.00 in - - ()
Sea Level Pressure  
Sea Level Pressure 29.77 in    
Wind  
Wind Speed 6 mph (West)    
Max Wind Speed 23 mph    
Max Gust Speed 32 mph    
Visibility 10 miles    
Events      
Averages and records for this station are not official NWS values.
T = Trace of Precipitation, MM = Missing Value Source: NWS Daily Summary

Daily Weather History Graph

Daily Weather History Graph

Search for Another Location

Airport:

Trip Planner

Search our weather history database for the weather conditions in past years. The results will help you decide how hot, cold, wet, or windy it might be!

Date:

Astronomy

Mar. 29, 2012 Rise Set
Actual Time 6:50 AM MDT 7:20 PM MDT
Civil Twilight 6:24 AM MDT 7:45 PM MDT
Nautical Twilight 5:54 AM MDT 8:16 PM MDT
Astronomical Twilight 5:24 AM MDT 8:46 PM MDT
Moon 11:11 AM MDT (3/29) 1:03 AM MDT (3/29)
Length of Visible Light 13h 20m
Length of Day
12h 29m
Waxing Crescent, 40% of the Moon is Illuminated
Mar 29
Waxing Crescent
Mar 30
First Quarter
Apr 6
Full
Apr 13
Last Quarter
Apr 21
New

Hourly Weather History & Observations

Time (MDT) Temp. Windchill Dew Point Humidity Pressure Visibility Wind Dir Wind Speed Gust Speed Precip Events Conditions
12:53 AM 45.0 °F - 6.1 °F 20% 29.78 in 10.0 mi Calm Calm - N/A   Clear
1:53 AM 43.0 °F - 6.1 °F 22% 29.77 in 10.0 mi Calm Calm - N/A   Clear
2:53 AM 48.9 °F - 3.0 °F 15% 29.75 in 10.0 mi West 5.8 mph - N/A   Clear
3:53 AM 46.9 °F - 1.9 °F 16% 29.74 in 10.0 mi West 5.8 mph - N/A   Clear
4:53 AM 48.0 °F - 1.0 °F 14% 29.74 in 10.0 mi West 4.6 mph - N/A   Clear
5:53 AM 45.0 °F 43.5 °F 1.9 °F 17% 29.77 in 10.0 mi WSW 3.5 mph - N/A   Clear
6:53 AM 39.0 °F 33.4 °F 5.0 °F 24% 29.83 in 10.0 mi West 8.1 mph - N/A   Clear
7:53 AM 45.0 °F 40.6 °F 9.0 °F 23% 29.86 in 10.0 mi NNW 8.1 mph - N/A   Clear
8:53 AM 55.9 °F - 7.0 °F 14% 29.81 in 10.0 mi North 3.5 mph - N/A   Clear
9:53 AM 61.0 °F - 8.1 °F 12% 29.82 in 10.0 mi Calm Calm - N/A   Clear
10:53 AM 63.0 °F - 5.0 °F 10% 29.79 in 10.0 mi SW 5.8 mph - N/A   Clear
11:53 AM 66.9 °F - 5.0 °F 9% 29.76 in 10.0 mi South 10.4 mph 16.1 mph N/A   Clear
12:53 PM 69.1 °F - 3.9 °F 8% 29.75 in 10.0 mi West 12.7 mph 21.9 mph N/A   Clear
1:53 PM 70.0 °F - 1.9 °F 7% 29.72 in 10.0 mi SW 15.0 mph 28.8 mph N/A   Clear
2:53 PM 71.1 °F - 1.9 °F 7% 29.68 in 10.0 mi WSW 23.0 mph 32.2 mph N/A   Clear
3:53 PM 68.0 °F - 7.0 °F 9% 29.70 in 10.0 mi West 17.3 mph 28.8 mph N/A   Clear
4:53 PM 68.0 °F - 10.0 °F 11% 29.70 in 10.0 mi WNW 11.5 mph 20.7 mph N/A   Clear
5:53 PM 66.9 °F - 10.9 °F 11% 29.73 in 10.0 mi WNW 13.8 mph 19.6 mph N/A   Clear
6:53 PM 63.0 °F - 9.0 °F 12% 29.78 in 10.0 mi WNW 11.5 mph - N/A   Clear
7:53 PM 53.1 °F - 9.0 °F 17% 29.81 in 10.0 mi NW 10.4 mph - N/A   Clear
8:53 PM 48.9 °F - 8.1 °F 19% 29.80 in 10.0 mi NW 10.4 mph - N/A   Clear
9:53 PM 50.0 °F - 9.0 °F 19% 29.79 in 10.0 mi WNW 8.1 mph - N/A   Clear
10:53 PM 45.0 °F 40.1 °F 12.0 °F 26% 29.79 in 10.0 mi NNW 9.2 mph - N/A   Clear
11:53 PM 45.0 °F 41.2 °F 12.9 °F 27% 29.79 in 10.0 mi NNE 6.9 mph - N/A   Clear